www.pogodaiklimat.ru

Погода и климат >> Архив погоды >> Испания >> Сан-Себастьян


ПОГОДА в Сан-Себастьяне

  • Прогноз погоды в Сан-Себастьяне
  • Монитор погоды в Сан-Себастьяне

АРХИВ ПОГОДЫ в Сан-Себастьяне

Время (UTC), дата Ветер
(напр.,м/с)
 
Видим.   Явления Облачность Т
(С)
Тd
(С)
f
(%)
Тe
(С)
Тes
(С)
Комфортность P
(гПа)
Po
(гПа)
Тmin
(С)
Tmax
(С)
R
(мм)
R24
(мм)
S
(см)
00 13.08 СЗ 3 25 км 6/4 300 м
[Cu Sc Ac trans]
+16.8 +12.1 74 +17 +17 1024.4 993.9
03 13.08 Ю 2 25 км 6/1 300 м
[Cu Sc Ac trans]
+15.9 +11.7 76 +16 +16 1023.9 993.3
06 13.08 Ю 1 25 км {дождь} 9/9 600 м
[Cu Sc Ci fib]
+15.2 +13.7 91 +16 +16 1023.3 992.7 +14.8 0.7
09 13.08 ЮВ 1 30 км 3/3 600 м
[Cu Sc Ac cuf]
+17.2 +14.7 85 +18 +26 1023.4 993.0
12 13.08 С 2 40 км 1/1 600 м
[Cu Sc Ci fib]
+19.1 +13.1 68 +21 +36 комфорт 1022.9 992.7
15 13.08 СЗ 4 40 км 3/1 600 м
[Cu Sc Ci fib]
+19.4 +13.6 69 +21 +27 комфорт 1022.7 992.5
18 13.08 С 2 40 км 3/1 300 м
[Cu Sc Ci sp]
+18.6 +12.1 66 +20 +20 1022.4 992.1 +20.0
21 13.08 В 3 40 км 1/0
[Ci fib]
+16.0 +12.7 81 +16 +16 1022.8 992.3
00 14.08 ЮВ 1 30 км 5/0
[Ci fib]
+14.6 +12.6 88 +15 +15 1022.5 991.8
03 14.08 Ю 3 30 км 4/0
[Ci fib]
+13.6 +11.8 89 +12 +12 1021.1 990.4
06 14.08 Ю 3 50 км 4/0
[Ac trans]
+14.8 +11.6 81 +14 +14 1020.6 990.0 +13.5
09 14.08 ЮВ 2 50 км 1/0
[Ci fib]
+20.2 +13.6 66 +23 +32 комфорт 1020.3 990.3
12 14.08 СЗ 3 50 км 4/0
[Ac trans Ci fib]
+22.4 +12.6 54 +25 +36 комфорт 1020.2 990.4
15 14.08 СЗ 3 50 км 3/0
[Ac As Ci fib]
+22.0 +14.6 63 +25 +32 комфорт 1020.1 990.3
18 14.08 З 2 50 км 9/1 1000 м
[Sc Ac As]
+20.4 +17.4 83 +24 +25 комфорт 1020.3 990.3 +23.0
21 14.08 Ю 2 2000 м в посл. час морось 10/10 50 м
[St]
+18.4 +18.1 98 +20 +20 1021.3 991.1
00 15.08 ЮЗ 3 2000 м слаб. ливневой дождь {морось} 10/10 200 м
[St]
+18.5 +18.0 97 +19 +19 1021.2 991.0 1
03 15.08 ЮЗ 2 8000 м дымка {ливн. осадки} 10/10 200 м
[St]
+18.6 +17.9 96 +20 +20 1020.8 990.7
06 15.08 З 5 10 км в посл. час ливневой дождь 9/9 200 м
[Cu Sc]
+17.2 +16.2 94 +16 +16 1022.1 991.8 +17.2 4
09 15.08 З 3 20 км {ливн. осадки} 10/10 200 м
[Cu Sc]
+18.3 +16.8 91 +19 +19 1023.3 993.0
12 15.08 СЗ 4 30 км {ливн. осадки} 9/4 300 м
[Cu Sc Ac As]
+19.7 +16.2 80 +22 +25 комфорт 1023.0 992.9 0.5
15 15.08 СЗ 4 55 км 4/3 1000 м
[Cu Sc Ac As Cs]
+20.8 +14.7 68 +24 +29 комфорт 1023.1 993.1
18 15.08 СЗ 2 55 км 3/1 1000 м
[Sc Ci fib]
+20.0 +14.6 71 +23 +24 комфорт 1022.8 992.7 +21.3 0.5
21 15.08 С 1 50 км 1/1 1000 м
[Sc]
+17.7 +14.0 79 +19 +19 1023.5 993.1
00 16.08 Ю 1 50 км 3/3 1000 м
[Sc]
+15.5 +13.9 90 +16 +16 1022.6 992.0
03 16.08 Ю 3 50 км 1/1 1000 м
[Sc]
+14.0 +12.7 92 +13 +13 1020.8 990.1
06 16.08 ЮВ 3 50 км 1/0
[Ci fib]
+13.4 +12.3 93 +12 +13 1020.5 989.8 +13.4
09 16.08 ЮВ 3 55 км 1/0
[Ci fib]
+18.6 +14.5 77 +19 +27 1018.9 988.8
12 16.08 СЗ 2 55 км 3/0
[Ci fib]
+20.0 +16.0 78 +23 +38 комфорт 1017.9 988.0
15 16.08 СЗ 2 50 км 5/0
[Ci]
+22.8 +18.1 75 +28 +37 душно 1016.6 987.0
18 16.08 СЗ 4 40 км 4/0
[Ci fib]
+23.2 +18.1 73 +29 +29 душно 1016.2 986.7 +24.8
21 16.08 З 2 40 км 6/0
[Ci sp]
+19.1 +14.1 73 +21 +21 комфорт 1017.7 987.7
00 17.08 З 1 45 км 3/0
[Ci fib]
+18.5 +13.8 74 +20 +20 1017.5 987.4
03 17.08 В 1 45 км 3/0
[Ci fib]
+17.8 +11.8 68 +19 +19 1016.9 986.7
06 17.08 ЮВ 3 45 км 3/0
[Ci fib]
+16.9 +12.6 76 +17 +17 1016.1 985.9 +16.0
09 17.08 ЮВ 2 50 км 3/0
[Ci fib]
+20.8 +15.6 72 +25 +33 комфорт 1017.6 987.7
12 17.08 СЗ 1 45 км 1/1 1000 м
[Cu hum Ci fib]
+24.5 +18.0 67 +29 +46 душно 1015.1 985.7
15 17.08 СЗ 4 50 км 1/0
[Ci fib]
+23.5 +20.2 82 +29 +36 душно 1014.0 984.6
18 17.08 С 2 50 км ясно +22.6 +16.4 68 +27 +28 душно 1012.7 983.2 +26.4
21 17.08 СЗ 1 45 км 1/0
[Ci fib]
+20.2 +17.6 85 +25 +25 комфорт 1013.4 983.6
00 18.08 Ю 3 40 км 1/0
[Ci fib]
+19.0 +17.0 88 +21 +21 комфорт 1011.2 981.4
03 18.08 ЮВ 3 40 км 1/0
[Ci fib]
+18.6 +17.3 92 +20 +20 1010.2 980.4
06 18.08 Ю 2 40 км 3/1 300 м
[Sc Ci fib]
+18.4 +16.7 90 +20 +20 1010.4 980.5 +17.0
09 18.08 СЗ 5 35 км 8/5 300 м
[Cu Sc Ac und Ci fib]
+20.6 +18.9 90 +25 +26 комфорт 1013.3 983.6
12 18.08 З 4 30 км 9/8 300 м
[Cu Sc Ac As]
+21.6 +20.1 91 +27 +29 душно 1014.5 984.9
15 18.08 СЗ 5 25 км 9/9 300 м
[Cu Sc]
+19.4 +17.5 89 +21 +22 комфорт 1015.3 985.4
18 18.08 СЗ 8 200 м слаб. дождь {туман} ?/? +17.2 +17.2 100 +16 +16 1017.1 986.9 +22.0 7
21 18.08 СЗ 5 20 км в посл. час дождь {туман} 10/10 200 м
[Cu Sc]
+15.8 +15.5 98 +15 +15 1018.4 988.0
00 19.08 СЗ 4 200 м слаб. дождь {туман} ?/? +16.4 +16.1 98 +16 +16 1020.2 989.8 3
03 19.08 Ю 2 15 км {дождь, туман} 10/10 200 м
[Cu Sc]
+15.6 +15.3 98 +16 +16 1019.8 989.3
06 19.08 В 1 15 км {дождь, туман} 10/10 200 м
[Cu Sc]
+15.6 +15.0 96 +16 +16 1020.3 989.8 +15.5 4
09 19.08 З 3 12 км 10/10 200 м
[Cu Sc]
+16.5 +15.4 93 +16 +16 1020.4 990.0
12 19.08 СЗ 3 20 км {дождь} 9/8 200 м
[Cu Sc Ac As]
+18.4 +15.5 83 +19 +21 1020.5 990.3 0.0
15 19.08 С 3 20 км 10/8 600 м
[Cu Sc Ac As]
+18.5 +14.2 76 +19 +20 1020.5 990.3
18 19.08 СВ 4 15 км {дождь} 10/9 300 м
[Cu Sc Ac As]
+17.4 +14.5 83 +17 +17 1020.5 990.2 +19.6 0.0
21 19.08 СВ 4 15 км слаб. дождь 10/10 300 м
[Cu Sc]
+16.9 +14.0 83 +16 +16 1021.1 990.7

 

Местоположение метеостанции Сан-Себастьян (Испания): широта 43.30 долгота -2.03 высота над уровнем моря 259 м.

В архиве по умолчанию представлена погода в Сан-Себастьяне за последнюю неделю. Архивные данные за месяц целиком и за предыдущие месяцы, начиная с января 2011 года, Вы можете получить, выбрав интересующий диапазон дат из раскрывающегося списка и нажав кнопку "Ввод!".


*Определитесь, кто Вы:
робот инопланетянин человек

Внимание! Время в таблицах - всемирное. Для получения местного времени необходимо прибавить поправку, которая равна 1 ч.

Смотрите также архив погоды в соседних городах и на ближайших метеорологических станциях:

Погода на Мысе Зумая (Испания) (18 км)
Погода Сан-Себастьян аэропорту (Испания) (19 км)
Погода в Сибуре (Франция) (30 км)
Погода в Элгойбар - Ибердрола (Испания) (32 км)
Погода в Зумаррага - Урзабалета (Испания) (34 км)
Погода на Мысе Лекейтио (Испания) (40 км)
Погода в Ирурите (Испания) (44 км)
Погода в Биаррице (Франция) (45 км)
Погода в Памплоне (Испания) (67 км)
Погода в Илундайне (Испания) (71 км)

Пояснения к столбцам:

Ветер - указаны скорость ветра в м/с - средняя за 10 мин, порывы в срок и между сроками (в фигурных скобках) и направление, откуда дует ветер: С - северный, СВ - северо-восточный, В - восточный, ЮВ - юго-восточный, Ю - южный, ЮЗ - юго-западный, З - западный, СЗ - северо-западный.
Видимость - горизонтальная дальность видимости в метрах или километрах. При видимости от 1 до 10 км при отсутствии осадков обычно наблюдается дымка, при ухудшении видимости до 1 км и менее - туман. В сухую погоду видимость может ухудшаться дымом, пылью или мглою.
Явления - указаны атмосферные явления, наблюдавшиеся в срок или в последний час перед сроком; фигурными скобками обозначены явления, наблюдавшиеся между сроками (за 1-3 часа до срока); квадратными скобками обозначены град или гололедные отложения с указанием их диаметра в мм.
Облачность - указаны через наклонную черту общая и нижняя облачность в баллах и высота нижней границы облаков в метрах; квадратными скобками обозначены формы облаков: Ci - перистые, Cs - перисто-слоистые, Cc - перисто-кучевые, Ac - высококучевые, As - высокослоистые, Sc - слоисто-кучевые, Ns - слоисто-дождевые, Cu - кучевые, Cb - кучево-дождевые. Подробнее классификацию облаков см. в Атласе облаков (PDF).
T - Температура воздуха - температура, измеренная на высоте 2 м над землей.
Td - Температура точки росы - температура, при понижении до которой содержащийся в воздухе водяной пар достигнет насыщения.
f - Относительная влажность воздуха - влажноcть воздуха, измеренная на высоте 2 м над землей.
Te - Эффективная температура - температура, которую ощущает одетый по сезону человек в тени. Характеристика душности погоды. При расчете учитывается влияние влажности воздуха и скорости ветра на теплоощущения человека.
Tes - Эффективная температура на солнце - температура, которую ощущает человек, с поправкой на солнечный нагрев. Характеристика знойности погоды. Зависит от высоты солнца над горизонтом, облачности и скорости ветра. Ночью, в пасмурную погоду, а также при ветре 12 м/с и более поправка равна нулю.
P - Атмосферное давление - приведенное к уровню моря атмосферное давление.
Po - Атмосферное давление - измеренное на уровне метеостанции атмосферное давление.
Tmin - Минимальная температура - минимум температуры воздуха на высоте 2 м над землей.
Tmax - Максимальная температура - максимум температуры воздуха на высоте 2 м над землей.
R - Количество осадков - Количество выпавших осадков за период времени, мм. При наведении курсора мыши на число - период времени, за который выпало указанное количество осадков.
R24 - Количество осадков - Количество выпавших осадков за 24 часа, мм.
S - Снежный покров - Высота снежного покрова, см. При наведении курсора мыши на число - состояние снежного покрова и степень покрытия местности в баллах.